| time (UTC) | temp C | wind direction | speed KPH | gust KPH | rain 1hr cm | rain 24hr cm | rain mn cm | humidity % | barometer mb |
| 20260901220231 | 32 | 207 | 12.9 | 24.1 | 0.00 | 0.00 | 0.00 | 28 | 1014.0 |
| 20260901215717 | 32 | 215 | 12.9 | 27.4 | 0.00 | 0.00 | 0.00 | 29 | 1014.0 |
| 20260901215217 | 32 | 215 | 11.3 | 27.4 | 0.00 | 0.00 | 0.00 | 27 | 1014.1 |
| 20260901214712 | 32 | 238 | 9.7 | 19.3 | 0.00 | 0.00 | 0.00 | 26 | 1014.2 |
| 20260901214211 | 32 | 215 | 11.3 | 24.1 | 0.00 | 0.00 | 0.00 | 26 | 1014.1 |
| 20260901213943 | 32 | 220 | 12.9 | 24.1 | 0.00 | 0.00 | 0.00 | 26 | 1014.2 |
| 20260901213211 | 32 | 219 | 12.9 | 25.7 | 0.00 | 0.00 | 0.00 | 25 | 1014.1 |
| 20260901212711 | 32 | 224 | 12.9 | 25.7 | 0.00 | 0.00 | 0.00 | 24 | 1014.3 |
| 20260901212209 | 32 | 198 | 11.3 | 20.9 | 0.00 | 0.00 | 0.00 | 23 | 1014.3 |
| 20260901211706 | 32 | 219 | 11.3 | 20.9 | 0.00 | 0.00 | 0.00 | 21 | 1014.3 |
| 20260901211205 | 32 | 232 | 9.7 | 20.9 | 0.00 | 0.00 | 0.00 | 20 | 1014.4 |
| 20260901210704 | 32 | 221 | 8.0 | 20.9 | 0.00 | 0.00 | 0.00 | 19 | 1014.4 |
| 20260901210204 | 32 | 226 | 11.3 | 20.9 | 0.00 | 0.00 | 0.00 | 18 | 1014.4 |
| 20260901205704 | 32 | 228 | 12.9 | 22.5 | 0.00 | 0.00 | 0.00 | 18 | 1014.5 |
| 20260901205203 | 32 | 252 | 9.7 | 22.5 | 0.00 | 0.00 | 0.00 | 19 | 1014.4 |
| 20260901204703 | 32 | 224 | 9.7 | 22.5 | 0.00 | 0.00 | 0.00 | 20 | 1014.5 |
| 20260901203705 | 32 | 213 | 9.7 | 22.5 | 0.00 | 0.00 | 0.00 | 21 | 1014.5 |
| 20260901203434 | 32 | 224 | 8.0 | 22.5 | 0.00 | 0.00 | 0.00 | 20 | 1014.6 |
| 20260901202934 | 32 | 185 | 8.0 | 17.7 | 0.00 | 0.00 | 0.00 | 22 | 1014.7 |
| 20260901202203 | 32 | 225 | 8.0 | 14.5 | 0.00 | 0.00 | 0.00 | 23 | 1014.7 |
| 20260901201932 | 32 | 198 | 9.7 | 17.7 | 0.00 | 0.00 | 0.00 | 24 | 1014.8 |
| 20260901201200 | 32 | 216 | 8.0 | 17.7 | 0.00 | 0.00 | 0.00 | 25 | 1014.9 |
| 20260901200702 | 32 | 225 | 6.4 | 14.5 | 0.00 | 0.00 | 0.00 | 25 | 1015.0 |
| 20260901200200 | 31 | 221 | 6.4 | 19.3 | 0.00 | 0.00 | 0.00 | 25 | 1015.0 |
| 20260901195702 | 31 | 226 | 8.0 | 19.3 | 0.00 | 0.00 | 0.00 | 27 | 1015.2 |
| 20260901195428 | 31 | 231 | 6.4 | 16.1 | 0.00 | 0.00 | 0.00 | 30 | 1015.2 |
| 20260901194657 | 31 | 215 | 6.4 | 14.5 | 0.00 | 0.00 | 0.00 | 30 | 1015.3 |
| 20260901194157 | 30 | 216 | 6.4 | 14.5 | 0.00 | 0.00 | 0.00 | 31 | 1015.3 |
| 20260901193652 | 30 | 214 | 6.4 | 11.3 | 0.00 | 0.00 | 0.00 | 32 | 1015.3 |
| 20260901193151 | 30 | 234 | 4.8 | 11.3 | 0.00 | 0.00 | 0.00 | 31 | 1015.5 |
| 20260901192649 | 30 | 248 | 6.4 | 12.9 | 0.00 | 0.00 | 0.00 | 31 | 1015.6 |
| 20260901192421 | 30 | 244 | 4.8 | 12.9 | 0.00 | 0.00 | 0.00 | 31 | 1015.7 |
| 20260901191649 | 29 | 221 | 4.8 | 12.9 | 0.00 | 0.00 | 0.00 | 36 | 1015.7 |
| 20260901191149 | 29 | 223 | 6.4 | 12.9 | 0.00 | 0.00 | 0.00 | 34 | 1015.7 |
| 20260901190649 | 28 | 231 | 6.4 | 12.9 | 0.00 | 0.00 | 0.00 | 33 | 1015.8 |
| 20260901190149 | 29 | 231 | 8.0 | 12.9 | 0.00 | 0.00 | 0.00 | 32 | 1015.8 |
| 20260901185649 | 29 | 231 | 8.0 | 14.5 | 0.00 | 0.00 | 0.00 | 31 | 1015.8 |
| 20260901185148 | 29 | 257 | 8.0 | 14.5 | 0.00 | 0.00 | 0.00 | 34 | 1015.8 |
| 20260901184644 | 28 | 236 | 6.4 | 12.9 | 0.00 | 0.00 | 0.00 | 38 | 1015.9 |
| 20260901184148 | 28 | 217 | 6.4 | 12.9 | 0.00 | 0.00 | 0.00 | 37 | 1015.9 |
| 20260901183642 | 28 | 217 | 6.4 | 12.9 | 0.00 | 0.00 | 0.00 | 40 | 1016.0 |
| 20260901183141 | 27 | 225 | 6.4 | 11.3 | 0.00 | 0.00 | 0.00 | 42 | 1016.1 |
| 20260901182641 | 27 | 225 | 6.4 | 11.3 | 0.00 | 0.00 | 0.00 | 45 | 1016.2 |
| 20260901182138 | 27 | 215 | 6.4 | 9.7 | 0.00 | 0.00 | 0.00 | 46 | 1016.2 |
| 20260901181639 | 27 | 213 | 6.4 | 12.9 | 0.00 | 0.00 | 0.00 | 47 | 1016.2 |
| 20260901181140 | 27 | 214 | 4.8 | 12.9 | 0.00 | 0.00 | 0.00 | 44 | 1016.2 |
| 20260901180640 | 27 | 211 | 4.8 | 11.3 | 0.00 | 0.00 | 0.00 | 49 | 1016.2 |
| 20260901180139 | 27 | 232 | 3.2 | 12.9 | 0.00 | 0.00 | 0.00 | 51 | 1016.2 |
| 20260901175639 | 26 | 233 | 3.2 | 12.9 | 0.00 | 0.00 | 0.00 | 55 | 1016.3 |
| 20260901175139 | 26 | 223 | 3.2 | 8.0 | 0.00 | 0.00 | 0.00 | 55 | 1016.3 |
| 20260901174909 | 26 | 223 | 3.2 | 8.0 | 0.00 | 0.00 | 0.00 | 56 | 1016.3 |
| 20260901174136 | 26 | 223 | 4.8 | 9.7 | 0.00 | 0.00 | 0.00 | 57 | 1016.3 |
| 20260901173637 | 25 | 223 | 3.2 | 9.7 | 0.00 | 0.00 | 0.00 | 58 | 1016.3 |
| 20260901173138 | 25 | 223 | 1.6 | 6.4 | 0.00 | 0.00 | 0.00 | 59 | 1016.3 |
| 20260901172636 | 25 | 223 | 3.2 | 6.4 | 0.00 | 0.00 | 0.00 | 61 | 1016.3 |
| 20260901172137 | 25 | 223 | 3.2 | 8.0 | 0.00 | 0.00 | 0.00 | 62 | 1016.2 |
| 20260901171637 | 25 | 223 | 3.2 | 8.0 | 0.00 | 0.00 | 0.00 | 63 | 1016.2 |
| 20260901171137 | 25 | 223 | 3.2 | 8.0 | 0.00 | 0.00 | 0.00 | 64 | 1016.2 |
| 20260901170907 | 24 | 223 | 3.2 | 8.0 | 0.00 | 0.00 | 0.00 | 65 | 1016.2 |
| 20260901170140 | 24 | 223 | 1.6 | 6.4 | 0.00 | 0.00 | 0.00 | 68 | 1016.1 |
| 20260901165636 | 23 | 223 | 3.2 | 6.4 | 0.00 | 0.00 | 0.00 | 69 | 1016.2 |
| 20260901165138 | 23 | 223 | 3.2 | 4.8 | 0.00 | 0.00 | 0.00 | 71 | 1016.2 |
| 20260901164636 | 22 | 223 | 3.2 | 6.4 | 0.00 | 0.00 | 0.00 | 72 | 1016.2 |
| 20260901164137 | 22 | 223 | 3.2 | 6.4 | 0.00 | 0.00 | 0.00 | 73 | 1016.2 |
| 20260901163638 | 22 | 223 | 1.6 | 6.4 | 0.00 | 0.00 | 0.00 | 75 | 1016.2 |
| 20260901163136 | 22 | 223 | 0.0 | 1.6 | 0.00 | 0.00 | 0.00 | 77 | 1016.1 |
| 20260901162636 | 21 | 223 | 0.0 | 0.0 | 0.00 | 0.00 | 0.00 | 78 | 1016.1 |
| 20260901162136 | 21 | 223 | 0.0 | 0.0 | 0.00 | 0.00 | 0.00 | 79 | 1016.1 |
| 20260901161638 | 21 | 223 | 0.0 | 0.0 | 0.00 | 0.00 | 0.00 | 80 | 1016.0 |
| 20260901161136 | 21 | 223 | 0.0 | 0.0 | 0.00 | 0.00 | 0.00 | 81 | 1016.0 |
| 20260901160638 | 21 | 223 | 0.0 | 0.0 | 0.00 | 0.00 | 0.00 | 82 | 1016.1 |
| 20260901160136 | 20 | 223 | 1.6 | 6.4 | 0.00 | 0.00 | 0.00 | 83 | 1016.0 |
| 20260901155635 | 20 | 223 | 1.6 | 6.4 | 0.00 | 0.00 | 0.00 | 83 | 1016.0 |
| 20260901155407 | 20 | 223 | 0.0 | 3.2 | 0.00 | 0.00 | 0.00 | 84 | 1016.1 |
| 20260901154634 | 20 | 223 | 1.6 | 8.0 | 0.00 | 0.00 | 0.00 | 84 | 1016.1 |
| 20260901154132 | 20 | 223 | 1.6 | 8.0 | 0.00 | 0.00 | 0.00 | 84 | 1016.2 |
| 20260901153632 | 19 | 223 | 0.0 | 4.8 | 0.00 | 0.00 | 0.00 | 84 | 1016.1 |
| 20260901153401 | 19 | 223 | 0.0 | 4.8 | 0.00 | 0.00 | 0.00 | 84 | 1016.1 |
| 20260901152628 | 19 | 223 | 1.6 | 6.4 | 0.00 | 0.00 | 0.00 | 84 | 1016.0 |
| 20260901152140 | 18 | 223 | 1.6 | 6.4 | 0.00 | 0.00 | 0.00 | 84 | 1016.1 |
| 20260901151627 | 18 | 223 | 0.0 | 1.6 | 0.00 | 0.00 | 0.00 | 84 | 1016.1 |
| 20260901151128 | 18 | 223 | 0.0 | 4.8 | 0.00 | 0.00 | 0.00 | 84 | 1016.1 |
| 20260901150858 | 18 | 223 | 1.6 | 4.8 | 0.00 | 0.00 | 0.00 | 83 | 1016.0 |
| 20260901150125 | 18 | 223 | 3.2 | 8.0 | 0.00 | 0.00 | 0.00 | 83 | 1015.9 |
| 20260901145623 | 18 | 223 | 3.2 | 8.0 | 0.00 | 0.00 | 0.00 | 83 | 1016.0 |
| 20260901145354 | 18 | 223 | 3.2 | 8.0 | 0.00 | 0.00 | 0.00 | 84 | 1016.0 |
| 20260901144120 | 18 | 223 | 3.2 | 8.0 | 0.00 | 0.00 | 0.00 | 83 | 1016.0 |
| 20260901143619 | 18 | 223 | 3.2 | 8.0 | 0.00 | 0.00 | 0.00 | 83 | 1015.9 |
| 20260901143118 | 18 | 223 | 3.2 | 6.4 | 0.00 | 0.00 | 0.00 | 84 | 1015.9 |
| 20260901142619 | 18 | 223 | 1.6 | 6.4 | 0.00 | 0.00 | 0.00 | 84 | 1015.8 |
| 20260901142116 | 17 | 223 | 1.6 | 4.8 | 0.00 | 0.00 | 0.00 | 84 | 1015.6 |
| 20260901141618 | 17 | 223 | 1.6 | 4.8 | 0.00 | 0.00 | 0.00 | 84 | 1015.6 |
| 20260901141117 | 17 | 223 | 1.6 | 4.8 | 0.00 | 0.00 | 0.00 | 84 | 1015.5 |
| 20260901140617 | 17 | 223 | 1.6 | 4.8 | 0.00 | 0.00 | 0.00 | 84 | 1015.4 |
| 20260901140122 | 17 | 223 | 1.6 | 3.2 | 0.00 | 0.00 | 0.00 | 84 | 1015.3 |
| 20260901135613 | 17 | 223 | 1.6 | 3.2 | 0.00 | 0.00 | 0.00 | 85 | 1015.2 |
| 20260901135112 | 17 | 223 | 0.0 | 3.2 | 0.00 | 0.00 | 0.00 | 85 | 1015.2 |
| 20260901134614 | 17 | 223 | 0.0 | 3.2 | 0.00 | 0.00 | 0.00 | 84 | 1015.2 |
| 20260901134342 | 17 | 223 | 1.6 | 4.8 | 0.00 | 0.00 | 0.00 | 85 | 1015.1 |
| 20260901133608 | 17 | 223 | 1.6 | 4.8 | 0.00 | 0.00 | 0.00 | 85 | 1015.0 |
| 20260901133110 | 17 | 223 | 1.6 | 4.8 | 0.00 | 0.00 | 0.00 | 85 | 1014.9 |
| 20260901132608 | 17 | 223 | 1.6 | 4.8 | 0.00 | 0.00 | 0.00 | 85 | 1014.8 |
| 20260901132110 | 17 | 223 | 0.0 | 4.8 | 0.00 | 0.00 | 0.00 | 85 | 1014.8 |
| 20260901131850 | 17 | 223 | 0.0 | 0.0 | 0.00 | 0.00 | 0.00 | 85 | 1014.9 |
| 20260901131107 | 17 | 223 | 0.0 | 0.0 | 0.00 | 0.00 | 0.00 | 85 | 1014.8 |
| 20260901130605 | 17 | 223 | 0.0 | 0.0 | 0.00 | 0.00 | 0.00 | 85 | 1014.8 |
| 20260901130118 | 17 | 223 | 0.0 | 0.0 | 0.00 | 0.00 | 0.00 | 84 | 1014.7 |
| 20260901125603 | 17 | 223 | 0.0 | 0.0 | 0.00 | 0.00 | 0.00 | 84 | 1014.7 |
| 20260901125100 | 18 | 223 | 0.0 | 0.0 | 0.00 | 0.00 | 0.00 | 85 | 1014.7 |
| 20260901124601 | 17 | 223 | 0.0 | 0.0 | 0.00 | 0.00 | 0.00 | 84 | 1014.7 |
| 20260901124101 | 17 | 223 | 0.0 | 0.0 | 0.00 | 0.00 | 0.00 | 84 | 1014.7 |
| 20260901123557 | 18 | 223 | 0.0 | 0.0 | 0.00 | 0.00 | 0.00 | 85 | 1014.7 |
| 20260901123058 | 18 | 223 | 0.0 | 0.0 | 0.00 | 0.00 | 0.00 | 84 | 1014.7 |
| 20260901122554 | 18 | 223 | 0.0 | 0.0 | 0.00 | 0.00 | 0.00 | 84 | 1014.7 |
| 20260901122325 | 18 | 223 | 0.0 | 0.0 | 0.00 | 0.00 | 0.00 | 84 | 1014.7 |
| 20260901121553 | 18 | 223 | 0.0 | 3.2 | 0.00 | 0.00 | 0.00 | 84 | 1014.8 |
| 20260901121051 | 18 | 223 | 0.0 | 3.2 | 0.00 | 0.00 | 0.00 | 84 | 1014.7 |
| 20260901120821 | 18 | 223 | 0.0 | 3.2 | 0.00 | 0.00 | 0.00 | 84 | 1014.7 |
| 20260901120100 | 18 | 223 | 0.0 | 3.2 | 0.00 | 0.00 | 0.00 | 84 | 1014.8 |
| 20260901115546 | 18 | 223 | 0.0 | 3.2 | 0.00 | 0.00 | 0.00 | 84 | 1014.8 |
| 20260901115318 | 18 | 223 | 0.0 | 3.2 | 0.00 | 0.00 | 0.00 | 84 | 1014.9 |
| 20260901114547 | 18 | 223 | 0.0 | 4.8 | 0.00 | 0.00 | 0.00 | 84 | 1014.9 |
| 20260901113545 | 18 | 223 | 0.0 | 3.2 | 0.00 | 0.00 | 0.00 | 84 | 1014.9 |
| 20260901113045 | 18 | 223 | 1.6 | 4.8 | 0.00 | 0.00 | 0.00 | 84 | 1015.0 |
| 20260901112544 | 18 | 223 | 1.6 | 6.4 | 0.00 | 0.00 | 0.00 | 84 | 1015.0 |
| 20260901112041 | 18 | 223 | 3.2 | 6.4 | 0.00 | 0.00 | 0.00 | 83 | 1014.9 |
| 20260901111541 | 18 | 223 | 3.2 | 6.4 | 0.00 | 0.00 | 0.00 | 83 | 1015.0 |
| 20260901110536 | 18 | 223 | 1.6 | 6.4 | 0.00 | 0.00 | 0.00 | 83 | 1015.0 |
| 20260901110038 | 18 | 223 | 1.6 | 4.8 | 0.00 | 0.00 | 0.00 | 83 | 1015.0 |
| 20260901105534 | 18 | 223 | 0.0 | 4.8 | 0.00 | 0.00 | 0.00 | 83 | 1015.1 |
| 20260901105033 | 18 | 223 | 0.0 | 3.2 | 0.00 | 0.00 | 0.00 | 83 | 1015.0 |
| 20260901104533 | 18 | 223 | 1.6 | 4.8 | 0.00 | 0.00 | 0.00 | 83 | 1015.0 |
| 20260901104027 | 18 | 223 | 1.6 | 4.8 | 0.00 | 0.00 | 0.00 | 82 | 1014.9 |
| 20260901103525 | 18 | 223 | 1.6 | 3.2 | 0.00 | 0.00 | 0.00 | 83 | 1015.0 |
| 20260901103025 | 18 | 223 | 1.6 | 3.2 | 0.00 | 0.00 | 0.00 | 82 | 1014.9 |
| 20260901102524 | 18 | 223 | 0.0 | 3.2 | 0.00 | 0.00 | 0.00 | 82 | 1014.9 |
| 20260901102252 | 18 | 223 | 0.0 | 3.2 | 0.00 | 0.00 | 0.00 | 82 | 1014.9 |
| 20260901101521 | 18 | 223 | 0.0 | 3.2 | 0.00 | 0.00 | 0.00 | 82 | 1015.0 |
| 20260901101017 | 18 | 223 | 1.6 | 4.8 | 0.00 | 0.00 | 0.00 | 82 | 1014.8 |
| 20260901100531 | 18 | 223 | 1.6 | 4.8 | 0.00 | 0.00 | 0.00 | 82 | 1014.9 |
| 20260901100017 | 18 | 223 | 1.6 | 3.2 | 0.00 | 0.00 | 0.00 | 82 | 1015.1 |
| 20260901095516 | 18 | 223 | 0.0 | 3.2 | 0.00 | 0.00 | 0.00 | 81 | 1015.0 |
| 20260901095248 | 18 | 223 | 0.0 | 1.6 | 0.00 | 0.00 | 0.00 | 81 | 1015.0 |
| 20260901094517 | 18 | 223 | 0.0 | 1.6 | 0.00 | 0.00 | 0.00 | 81 | 1015.0 |
| 20260901094246 | 18 | 223 | 0.0 | 3.2 | 0.00 | 0.00 | 0.00 | 80 | 1015.0 |
| 20260901093514 | 18 | 223 | 0.0 | 3.2 | 0.00 | 0.00 | 0.00 | 81 | 1014.9 |
| 20260901093244 | 19 | 223 | 0.0 | 3.2 | 0.00 | 0.00 | 0.00 | 80 | 1014.9 |
| 20260901092512 | 19 | 223 | 0.0 | 3.2 | 0.00 | 0.00 | 0.00 | 80 | 1014.9 |
| 20260901092009 | 19 | 223 | 1.6 | 3.2 | 0.00 | 0.00 | 0.00 | 80 | 1014.9 |
| 20260901091509 | 19 | 223 | 1.6 | 6.4 | 0.00 | 0.00 | 0.00 | 80 | 1014.9 |
| 20260901091237 | 19 | 223 | 1.6 | 6.4 | 0.00 | 0.00 | 0.00 | 80 | 1014.9 |
| 20260901090506 | 19 | 223 | 1.6 | 6.4 | 0.00 | 0.00 | 0.00 | 80 | 1014.8 |
| 20260901090006 | 19 | 223 | 1.6 | 4.8 | 0.00 | 0.00 | 0.00 | 80 | 1014.8 |
| 20260901085505 | 19 | 223 | 1.6 | 4.8 | 0.00 | 0.00 | 0.00 | 79 | 1014.8 |
| 20260901085236 | 19 | 223 | 1.6 | 4.8 | 0.00 | 0.00 | 0.00 | 79 | 1014.8 |
| 20260901084503 | 19 | 223 | 1.6 | 4.8 | 0.00 | 0.00 | 0.00 | 79 | 1014.8 |
| 20260901084233 | 19 | 223 | 1.6 | 6.4 | 0.00 | 0.00 | 0.00 | 78 | 1014.9 |
| 20260901083503 | 19 | 223 | 1.6 | 6.4 | 0.00 | 0.00 | 0.00 | 78 | 1014.9 |
| 20260901083003 | 19 | 223 | 1.6 | 6.4 | 0.00 | 0.00 | 0.00 | 78 | 1014.9 |
| 20260901082503 | 20 | 223 | 1.6 | 6.4 | 0.00 | 0.00 | 0.00 | 78 | 1014.9 |
| 20260901082002 | 20 | 223 | 1.6 | 4.8 | 0.00 | 0.00 | 0.00 | 77 | 1014.8 |
| 20260901081458 | 20 | 223 | 1.6 | 4.8 | 0.00 | 0.00 | 0.00 | 77 | 1014.8 |
| 20260901081000 | 20 | 223 | 3.2 | 4.8 | 0.00 | 0.00 | 0.00 | 77 | 1014.8 |
| 20260901080456 | 20 | 223 | 3.2 | 6.4 | 0.00 | 0.00 | 0.00 | 76 | 1014.8 |
| 20260901080228 | 20 | 223 | 3.2 | 6.4 | 0.00 | 0.00 | 0.00 | 76 | 1014.9 |
| 20260901075724 | 20 | 223 | 3.2 | 8.0 | 0.00 | 0.00 | 0.00 | 76 | 1014.9 |
| 20260901075225 | 20 | 223 | 3.2 | 8.0 | 0.00 | 0.00 | 0.00 | 75 | 1015.0 |
| 20260901074453 | 20 | 223 | 4.8 | 8.0 | 0.00 | 0.00 | 0.00 | 75 | 1015.0 |
| 20260901074217 | 20 | 223 | 4.8 | 9.7 | 0.00 | 0.00 | 0.00 | 74 | 1015.0 |
| 20260901073445 | 20 | 223 | 4.8 | 9.7 | 0.00 | 0.00 | 0.00 | 74 | 1014.9 |
| 20260901072942 | 20 | 223 | 4.8 | 9.7 | 0.00 | 0.00 | 0.00 | 73 | 1014.9 |
| 20260901072445 | 21 | 223 | 4.8 | 9.7 | 0.00 | 0.00 | 0.00 | 73 | 1014.8 |
| 20260901071941 | 21 | 223 | 4.8 | 8.0 | 0.00 | 0.00 | 0.00 | 72 | 1014.9 |
| 20260901071442 | 21 | 223 | 4.8 | 8.0 | 0.00 | 0.00 | 0.00 | 72 | 1014.7 |
| 20260901070940 | 21 | 223 | 4.8 | 8.0 | 0.00 | 0.00 | 0.00 | 72 | 1014.7 |
| 20260901070453 | 21 | 223 | 3.2 | 6.4 | 0.00 | 0.00 | 0.00 | 71 | 1014.8 |
| 20260901065942 | 21 | 223 | 3.2 | 6.4 | 0.00 | 0.00 | 0.00 | 71 | 1014.8 |
| 20260901065435 | 21 | 223 | 3.2 | 4.8 | 0.00 | 0.00 | 0.00 | 71 | 1014.8 |
| 20260901064936 | 21 | 223 | 3.2 | 6.4 | 0.00 | 0.00 | 0.00 | 70 | 1014.7 |
| 20260901064433 | 21 | 223 | 1.6 | 6.4 | 0.00 | 0.00 | 0.00 | 69 | 1014.7 |
| 20260901063934 | 21 | 223 | 1.6 | 4.8 | 0.00 | 0.00 | 0.00 | 70 | 1014.7 |
| 20260901063434 | 21 | 223 | 1.6 | 4.8 | 0.00 | 0.00 | 0.00 | 70 | 1014.6 |
| 20260901062935 | 21 | 223 | 1.6 | 4.8 | 0.00 | 0.00 | 0.00 | 70 | 1014.7 |
| 20260901062433 | 21 | 223 | 3.2 | 4.8 | 0.00 | 0.00 | 0.00 | 70 | 1014.7 |
| 20260901062200 | 21 | 223 | 3.2 | 4.8 | 0.00 | 0.00 | 0.00 | 69 | 1014.7 |
| 20260901061428 | 21 | 223 | 3.2 | 4.8 | 0.00 | 0.00 | 0.00 | 69 | 1014.7 |
| 20260901060927 | 21 | 223 | 3.2 | 8.0 | 0.00 | 0.00 | 0.00 | 69 | 1014.7 |
| 20260901060428 | 22 | 223 | 3.2 | 8.0 | 0.00 | 0.00 | 0.00 | 68 | 1014.7 |
| 20260901055926 | 22 | 223 | 3.2 | 8.0 | 0.00 | 0.00 | 0.00 | 68 | 1014.7 |
| 20260901055425 | 22 | 223 | 3.2 | 6.4 | 0.00 | 0.00 | 0.00 | 68 | 1014.7 |
| 20260901054925 | 22 | 223 | 3.2 | 8.0 | 0.00 | 0.00 | 0.00 | 68 | 1014.7 |
| 20260901054425 | 22 | 223 | 3.2 | 8.0 | 0.00 | 0.00 | 0.00 | 67 | 1014.7 |
| 20260901053927 | 22 | 223 | 3.2 | 8.0 | 0.00 | 0.00 | 0.00 | 67 | 1014.7 |
| 20260901053426 | 22 | 223 | 4.8 | 6.4 | 0.00 | 0.00 | 0.00 | 67 | 1014.7 |
| 20260901052425 | 22 | 223 | 4.8 | 9.7 | 0.00 | 0.00 | 0.00 | 67 | 1014.6 |
| 20260901051926 | 22 | 223 | 3.2 | 9.7 | 0.00 | 0.00 | 0.00 | 67 | 1014.6 |
| 20260901051658 | 22 | 222 | 3.2 | 6.4 | 0.00 | 0.00 | 0.00 | 67 | 1014.5 |
| 20260901050926 | 22 | 222 | 3.2 | 6.4 | 0.00 | 0.00 | 0.00 | 67 | 1014.5 |
| 20260901050425 | 22 | 222 | 3.2 | 6.4 | 0.00 | 0.00 | 0.00 | 67 | 1014.5 |
| 20260901045925 | 22 | 222 | 1.6 | 6.4 | 0.00 | 0.00 | 0.00 | 67 | 1014.5 |
| 20260901045423 | 22 | 222 | 1.6 | 4.8 | 0.00 | 0.00 | 0.00 | 66 | 1014.5 |
| 20260901045155 | 22 | 222 | 1.6 | 4.8 | 0.00 | 0.00 | 0.00 | 66 | 1014.5 |
| 20260901044424 | 22 | 222 | 3.2 | 4.8 | 0.00 | 0.00 | 0.00 | 65 | 1014.5 |
| 20260901043925 | 22 | 222 | 3.2 | 8.0 | 0.00 | 0.00 | 0.00 | 65 | 1014.4 |
| 20260901043422 | 22 | 222 | 4.8 | 8.0 | 0.00 | 0.00 | 0.00 | 65 | 1014.3 |
| 20260901042921 | 22 | 222 | 3.2 | 8.0 | 0.00 | 0.00 | 0.00 | 64 | 1014.3 |
| 20260901042421 | 22 | 222 | 1.6 | 8.0 | 0.00 | 0.00 | 0.00 | 64 | 1014.3 |
| 20260901042151 | 22 | 222 | 3.2 | 6.4 | 0.00 | 0.00 | 0.00 | 63 | 1014.2 |
| 20260901041417 | 22 | 222 | 3.2 | 6.4 | 0.00 | 0.00 | 0.00 | 63 | 1014.1 |
| 20260901040917 | 22 | 222 | 4.8 | 11.3 | 0.00 | 0.00 | 0.00 | 62 | 1014.0 |
| 20260901040417 | 23 | 222 | 6.4 | 11.3 | 0.00 | 0.00 | 0.00 | 62 | 1013.8 |
| 20260901040145 | 23 | 221 | 8.0 | 11.3 | 0.00 | 0.00 | 0.00 | 62 | 1013.7 |
| 20260901035412 | 23 | 224 | 6.4 | 12.9 | 0.00 | 0.00 | 0.00 | 62 | 1013.6 |
| 20260901034913 | 23 | 224 | 6.4 | 14.5 | 0.00 | 0.00 | 0.00 | 61 | 1013.6 |
| 20260901034409 | 23 | 224 | 8.0 | 14.5 | 0.00 | 0.00 | 0.00 | 61 | 1013.5 |
| 20260901033910 | 23 | 227 | 6.4 | 12.9 | 0.00 | 0.00 | 0.00 | 61 | 1013.3 |
| 20260901033410 | 23 | 242 | 8.0 | 17.7 | 0.00 | 0.00 | 0.00 | 61 | 1013.1 |
| 20260901032910 | 23 | 229 | 9.7 | 17.7 | 0.00 | 0.00 | 0.00 | 60 | 1013.1 |
| 20260901032405 | 23 | 230 | 8.0 | 16.1 | 0.00 | 0.00 | 0.00 | 60 | 1013.0 |
| 20260901031907 | 24 | 227 | 8.0 | 17.7 | 0.00 | 0.00 | 0.00 | 60 | 1012.9 |
| 20260901031404 | 24 | 226 | 9.7 | 17.7 | 0.00 | 0.00 | 0.00 | 59 | 1012.9 |
| 20260901030904 | 24 | 221 | 11.3 | 17.7 | 0.00 | 0.00 | 0.00 | 59 | 1013.0 |
| 20260901030401 | 24 | 219 | 11.3 | 20.9 | 0.00 | 0.00 | 0.00 | 58 | 1012.9 |
| 20260901025903 | 24 | 246 | 11.3 | 20.9 | 0.00 | 0.00 | 0.00 | 57 | 1012.8 |
| 20260901025402 | 25 | 226 | 11.3 | 20.9 | 0.00 | 0.00 | 0.00 | 57 | 1012.7 |
| 20260901024902 | 25 | 217 | 11.3 | 17.7 | 0.00 | 0.00 | 0.00 | 56 | 1012.7 |
| 20260901024403 | 25 | 219 | 11.3 | 19.3 | 0.00 | 0.00 | 0.00 | 55 | 1012.8 |
| 20260901023857 | 25 | 223 | 11.3 | 19.3 | 0.00 | 0.00 | 0.00 | 55 | 1012.7 |
| 20260901023357 | 25 | 219 | 11.3 | 16.1 | 0.00 | 0.00 | 0.00 | 53 | 1012.7 |
| 20260901022857 | 25 | 215 | 9.7 | 16.1 | 0.00 | 0.00 | 0.00 | 52 | 1012.6 |
| 20260901021859 | 26 | 226 | 11.3 | 19.3 | 0.00 | 0.00 | 0.00 | 49 | 1012.5 |
| 20260901021407 | 26 | 223 | 11.3 | 19.3 | 0.00 | 0.00 | 0.00 | 47 | 1012.5 |
| 20260901020854 | 26 | 223 | 11.3 | 19.3 | 0.00 | 0.00 | 0.00 | 45 | 1012.3 |
| 20260901020354 | 26 | 218 | 12.9 | 19.3 | 0.00 | 0.00 | 0.00 | 43 | 1012.3 |
| 20260901015852 | 27 | 207 | 11.3 | 17.7 | 0.00 | 0.00 | 0.00 | 41 | 1012.2 |
| 20260901015350 | 27 | 223 | 11.3 | 22.5 | 0.00 | 0.00 | 0.00 | 39 | 1012.3 |
| 20260901014851 | 27 | 209 | 11.3 | 22.5 | 0.00 | 0.00 | 0.00 | 37 | 1012.3 |
| 20260901014348 | 28 | 217 | 9.7 | 19.3 | 0.00 | 0.00 | 0.00 | 36 | 1012.3 |
| 20260901014120 | 28 | 227 | 11.3 | 19.3 | 0.00 | 0.00 | 0.00 | 35 | 1012.3 |
| 20260901013346 | 28 | 221 | 11.3 | 19.3 | 0.00 | 0.00 | 0.00 | 36 | 1012.3 |
| 20260901012846 | 28 | 231 | 12.9 | 19.3 | 0.00 | 0.00 | 0.00 | 35 | 1012.3 |
| 20260901012617 | 28 | 222 | 12.9 | 22.5 | 0.00 | 0.00 | 0.00 | 35 | 1012.3 |
| 20260901011847 | 28 | 218 | 12.9 | 22.5 | 0.00 | 0.00 | 0.00 | 35 | 1012.2 |
| 20260901011343 | 29 | 230 | 11.3 | 19.3 | 0.00 | 0.00 | 0.00 | 37 | 1012.2 |
| 20260901011113 | 29 | 233 | 12.9 | 24.1 | 0.00 | 0.00 | 0.00 | 36 | 1012.2 |
| 20260901010339 | 29 | 224 | 12.9 | 24.1 | 0.00 | 0.00 | 0.00 | 36 | 1012.2 |
| 20260901005839 | 29 | 226 | 12.9 | 25.7 | 0.00 | 0.00 | 0.00 | 36 | 1012.2 |
| 20260901005612 | 29 | 227 | 12.9 | 25.7 | 0.00 | 0.00 | 0.00 | 35 | 1012.2 |
| 20260901004838 | 30 | 242 | 12.9 | 24.1 | 0.00 | 0.00 | 0.00 | 34 | 1012.2 |
| 20260901004338 | 30 | 219 | 12.9 | 25.7 | 0.00 | 0.00 | 0.00 | 34 | 1012.2 |
| 20260901003836 | 30 | 238 | 12.9 | 25.7 | 0.00 | 0.00 | 0.00 | 34 | 1012.1 |
| 20260901003336 | 30 | 228 | 14.5 | 27.4 | 0.00 | 0.00 | 0.00 | 34 | 1012.2 |
| 20260901003105 | 30 | 256 | 14.5 | 27.4 | 0.00 | 0.00 | 0.00 | 35 | 1012.2 |
| 20260901002335 | 30 | 232 | 12.9 | 27.4 | 0.00 | 0.00 | 0.00 | 33 | 1012.3 |
| 20260901002106 | 31 | 252 | 12.9 | 25.7 | 0.00 | 0.00 | 0.00 | 34 | 1012.2 |
| 20260901001329 | 31 | 224 | 12.9 | 25.7 | 0.00 | 0.00 | 0.00 | 34 | 1012.3 |
| 20260901000831 | 31 | 254 | 12.9 | 25.7 | 0.00 | 0.00 | 0.00 | 34 | 1012.2 |
| 20260901000331 | 31 | 246 | 12.9 | 25.7 | 0.00 | 0.00 | 0.00 | 33 | 1012.2 |
| 20260831235831 | 31 | 273 | 12.9 | 27.4 | 0.00 | 0.00 | 0.00 | 30 | 1012.3 |
| 20260831235326 | 31 | 232 | 11.3 | 27.4 | 0.00 | 0.00 | 0.00 | 31 | 1012.2 |
| 20260831234827 | 31 | 215 | 11.3 | 27.4 | 0.00 | 0.00 | 0.00 | 31 | 1012.2 |
| 20260831234327 | 31 | 240 | 12.9 | 27.4 | 0.00 | 0.00 | 0.00 | 32 | 1012.1 |
| 20260831233826 | 31 | 226 | 11.3 | 24.1 | 0.00 | 0.00 | 0.00 | 30 | 1012.2 |
| 20260831233552 | 31 | 213 | 11.3 | 19.3 | 0.00 | 0.00 | 0.00 | 32 | 1012.2 |
| 20260831232823 | 31 | 225 | 14.5 | 25.7 | 0.00 | 0.00 | 0.00 | 34 | 1012.2 |
| 20260831232323 | 31 | 218 | 16.1 | 25.7 | 0.00 | 0.00 | 0.00 | 33 | 1012.2 |
| 20260831231823 | 31 | 222 | 16.1 | 27.4 | 0.00 | 0.00 | 0.00 | 34 | 1012.2 |
| 20260831231317 | 31 | 217 | 17.7 | 30.6 | 0.00 | 0.00 | 0.00 | 33 | 1012.3 |
| 20260831230818 | 31 | 228 | 16.1 | 30.6 | 0.00 | 0.00 | 0.00 | 35 | 1012.3 |
| 20260831230332 | 31 | 221 | 16.1 | 25.7 | 0.00 | 0.00 | 0.00 | 36 | 1012.3 |
| 20260831225818 | 31 | 219 | 14.5 | 25.7 | 0.00 | 0.00 | 0.00 | 36 | 1012.2 |
| 20260831225314 | 31 | 213 | 14.5 | 25.7 | 0.00 | 0.00 | 0.00 | 37 | 1012.2 |
| 20260831224814 | 31 | 234 | 14.5 | 25.7 | 0.00 | 0.00 | 0.00 | 38 | 1012.2 |
| 20260831224545 | 31 | 214 | 16.1 | 24.1 | 0.00 | 0.00 | 0.00 | 38 | 1012.3 |
| 20260831223815 | 31 | 219 | 16.1 | 24.1 | 0.00 | 0.00 | 0.00 | 38 | 1012.3 |
| 20260831223311 | 31 | 226 | 14.5 | 24.1 | 0.00 | 0.00 | 0.00 | 38 | 1012.3 |
| 20260831223041 | 32 | 230 | 14.5 | 24.1 | 0.00 | 0.00 | 0.00 | 38 | 1012.3 |
| 20260831222310 | 32 | 219 | 12.9 | 19.3 | 0.00 | 0.00 | 0.00 | 38 | 1012.5 |
| 20260831221811 | 32 | 245 | 12.9 | 27.4 | 0.00 | 0.00 | 0.00 | 38 | 1012.6 |
| 20260831221305 | 32 | 221 | 11.3 | 27.4 | 0.00 | 0.00 | 0.00 | 38 | 1012.6 |
| 20260831220806 | 32 | 219 | 11.3 | 20.9 | 0.00 | 0.00 | 0.00 | 37 | 1012.7 |